Showing default

ORBCOMM FM 17, 25413

Orbit data source: Space-Track

ORBCOMM FM 17, 25413 is a payload satellite owned by Orbcomm (US) in LEO that was launched on Sun, 02 Aug 1998 UTC via a PEGASUS XL/HAPS launch vehicle from the Pegasus Launch, Eastern Range Air Space (ERAS). Payload-class satellites include a variety of spacecraft equipped with specific instruments for various scientific and technological missions. These include communications satellites like Starlink; space stations such as the ISS; scientific satellites like the Hubble; Earth observation satellites from companies like Planet Labs, Umbra, and HawkEye 360; GPS; miniature CubeSats for education and research; and military/defense satellites.

Loading next visibility...
Identifier
25413, 1998-046A
Orbit
LEO
Country
Flag of USUS / ORB
Related business
Manufacturer
OSC-Germantown
Mission
Non-operational Commercial Communications
Bus & Motor
MICROSTAR, Unknown motor
Mass
42 kg wet, 42 kg dry
Launch date (UTC)
1998-08-02 (27 years ago)
Launch vehicle
PEGASUS XL/HAPS
Launch site
Pegasus Launch, Eastern Range Air Space (ERAS)
Object type
Payload
Rocket body
Debris
Shape & HBR
Cyl + 2 Pan, 2.1 m
Radar Cross Section
1.484 m², Medium (>0.1 m² and < 1m²)

Expand to show TLE details & history
Last TLE update: 9 hours ago

TLE from 9 hours ago
0 ORBCOMM FM 17
1 25413U 98046A   25243.50946551  .00001231  00000-0  47516-3 0  9996
2 25413  44.9933 262.0921 0004905 249.9268 110.1051 14.35215026413993
Epoch: 2025-08-31T12:13Z
TLE epoch observation values (Epoch: 2025-08-31T12:13:37.82Z)
Latitude
-0.00002°
Longitude
98.75611°
Altitude
775.557 km
Speed
7.467 km/s
True Right ascension
17h 28m 22s
True Declination
0° 00' 00"
Sunlit
Object was in daylight at epoch
Visualization orbit readout
Latitude
Unknown
Longitude
Unknown
Altitude
Unknown
Speed
Unknown
Apparent Right ascension
Unknown
Apparent Declination
Unknown
Sunlit
N/A
Visualization observer readout
Local Sidereal Time
12:34:12
Azimuth
Unknown
Elevation
Unknown
Doppler factor
Unknown
Orbital elements
Apogee altitude
779.406 km
Perigee altitude
772.388 km
Semi-major axis
7,154.034 km
Eccentricity
0.00049
Inclination
44.9933°
RAAN
262.0921°
Arg. of periapsis
249.9268°
True anomaly
110.15787°
Mean anomaly
110.1051°
Eccentric anomaly
110.13149°
Mean motion
3.58688 °/min
Orbital period
100.37 mins
BSTAR
0.00047516
Loading maneuver chart data...
Computing Atmospheric mass density...

Documentation

Showing up to 5 results
|